Wind_Speed
14 18 20 20 20 21 21 21 22 21 19 18 19 19 20 21 21 20 19 14 16 16 15 15 14 14 14 14 13 13 12 12 12 12 11 10 11 10 9 9 9 9 7
14 13 16 21 23 22 23 24 25 24 24 21 21 22 22 22 23 24 23 20 17 19 18 17 16 16 16 15 15 15 15 14 14 14 13 12 12 13 12 12 12 11 10
16 16 16 15 21 22 23 25 26 25 25 26 26 25 26 25 25 25 26 25 22 20 21 22 20 19 18 18 17 16 17 16 16 17 17 17 15 14 14 13 13 14 12
16 17 19 19 19 19 25 25 28 27 29 29 29 31 30 30 28 27 27 28 26 24 22 23 24 23 21 20 19 18 19 18 19 20 18 15 13 12 14 15 14 13 13
17 18 21 22 21 20 21 24 27 27 26 29 31 32 32 32 32 31 31 30 29 27 26 26 25 26 26 25 23 21 20 21 20 20 19 17 15 15 16 16 14 13 14
21 21 22 22 23 24 20 21 24 27 28 25 27 30 31 34 35 32 34 37 32 29 28 28 27 28 29 29 28 26 23 23 22 21 21 21 19 18 18 17 15 14 15
25 24 24 24 23 25 24 22 20 22 26 26 20 20 23 28 26 33 33 36 35 30 29 30 31 30 30 30 30 30 29 26 24 23 21 20 20 19 19 19 18 15 17
28 26 26 26 25 24 22 22 22 21 20 20 14 9 4 7 21 29 34 38 39 32 30 32 34 33 32 32 31 30 30 30 28 25 23 22 21 20 20 20 19 19 18
22 21 22 24 26 25 25 23 24 23 20 18 25 14 2 4 4 15 29 35 29 27 34 34 32 36 34 32 34 33 32 32 31 30 27 25 23 22 21 21 21 23 23
23 21 21 22 25 27 27 26 23 22 21 21 17 27 27 13 3 3 7 12 15 17 21 28 34 35 33 35 34 34 35 35 34 33 32 28 25 24 23 23 23 24 25
20 20 20 21 25 27 27 25 24 22 23 22 22 17 15 19 17 10 8 9 16 17 18 22 22 22 24 22 23 24 26 30 34 35 34 32 28 27 25 25 25 25 25
20 18 20 22 25 26 26 24 23 23 21 22 22 22 20 9 9 6 5 9 12 19 25 28 28 29 31 30 26 24 24 25 29 30 32 32 31 30 27 25 25 25 24
21 19 21 22 22 23 24 23 22 23 24 20 21 22 22 22 21 19 16 11 7 11 15 24 24 29 31 36 38 34 27 24 31 28 26 30 31 29 29 27 24 24 23
21 22 21 19 17 17 18 19 20 22 21 22 20 21 22 21 20 21 21 15 9 10 15 18 22 26 27 28 27 26 28 29 26 24 25 29 28 28 28 26 26 26 24
20 18 18 17 16 17 17 19 20 20 20 22 20 21 21 19 19 21 21 20 16 11 12 18 15 21 27 26 30 31 33 33 30 27 27 30 28 28 27 30 29 28 26
16 15 14 14 14 14 15 16 17 19 19 18 19 18 18 16 18 20 20 18 20 19 12 18 19 21 25 26 27 29 36 31 28 30 31 32 31 35 39 45 43 37 32
13 13 12 11 11 12 11 13 11 15 16 17 18 17 17 19 17 18 18 16 18 19 13 23 24 26 27 29 29 32 30 33 38 36 32 36 35 37 37 39 34 30 28
9 10 10 9 9 8 9 10 11 9 9 9 9 8 10 11 13 15 17 19 21 22 22 20 23 23 24 28 32 32 32 34 38 40 41 36 38 38 39 33 28 28 28
13 11 9 7 7 6 6 6 9 10 9 10 12 13 15 16 17 19 19 17 17 19 20 21 24 23 24 26 28 31 34 34 35 35 36 38 38 39 36 36 32 26 26
14 13 13 12 10 8 7 6 6 8 9 11 13 14 16 17 17 18 17 18 17 18 19 20 22 22 22 24 26 27 24 25 27 30 36 35 35 37 32 26 22 21 20
12 11 11 11 11 9 12 10 8 8 8 9 9 10 11 12 14 15 15 16 15 17 17 19 21 21 20 20 19 24 24 23 24 27 33 33 28 23 18 13 12 12 12
11 10 10 10 10 10 11 10 7 6 6 8 9 10 11 11 11 11 11 12 13 14 17 19 19 19 20 14 13 17 13 7 3 2 7 7 6 2 6 9 9 12 9
11 12 11 10 10 11 10 9 7 6 6 7 8 8 8 9 9 7 8 5 5 6 8 8 5 10 8 11 10 10 10 7 6 11 3 4 9 15 10 9 4 7 8
8 8 9 8 9 10 8 6 6 7 8 9 9 8 7 8 8 4 1 5 10 12 12 12 13 15 12 10 8 9 11 4 6 11 8 4 13 10 11 10 9 10 10
6 7 7 8 9 11 10 7 6 8 10 10 10 12 10 10 9 5 5 7 8 8 9 9 9 8 8 12 12 9 13 10 4 8 14 5 8 6 5 3 6 3 7
4 4 4 5 5 7 9 6 4 6 7 7 7 8 11 10 9 8 7 6 7 5 4 4 5 8 10 11 11 11 10 6 2 1 12 4 5 6 4 1 2 7 12
Wind_Direction
274 264 253 250 251 251 250 249 248 249 251 252 252 249 248 246 244 245 247 250 240 242 240 241 241 241 243 240 241 243 247 250 254 259 262 269 274 274 276 276 276 279 290
268 276 275 265 257 254 257 253 252 251 253 250 252 253 252 251 249 247 247 249 246 246 246 244 242 245 245 247 247 250 253 256 258 261 261 269 271 275 280 278 271 273 277
271 266 264 272 269 269 261 255 253 256 253 256 253 251 252 252 251 250 247 248 249 251 250 247 246 243 245 248 250 254 260 262 270 271 271 265 267 271 276 283 278 272 270
276 272 269 263 260 268 265 261 255 250 248 254 257 254 251 252 252 251 250 247 246 250 253 250 248 249 246 245 248 251 255 261 266 271 273 271 266 268 277 282 277 273 264
281 276 270 266 265 266 260 252 256 251 243 246 251 255 258 255 255 255 253 247 246 248 253 257 254 252 252 251 249 248 251 254 257 265 272 272 270 272 273 278 275 266 259
278 276 273 270 263 260 258 259 256 255 250 248 246 250 250 258 256 257 256 256 247 246 250 255 257 255 254 255 255 254 253 252 253 254 258 264 269 271 272 270 272 258 252
277 277 276 273 270 261 255 250 256 256 244 248 247 254 251 249 259 264 259 257 252 246 251 256 255 256 257 256 256 257 258 259 258 258 258 258 259 261 263 263 267 261 260
278 275 271 272 270 270 260 255 250 252 254 238 237 235 261 232 241 247 249 256 251 247 246 257 259 258 257 256 257 258 258 259 260 259 258 260 261 258 255 254 256 249 251
278 270 268 267 264 265 263 259 253 247 251 245 238 232 212 223 182 231 238 240 247 246 247 249 259 262 262 262 262 263 260 259 259 259 256 254 256 257 255 254 255 252 247
275 266 265 265 263 260 260 258 253 251 248 247 241 236 237 259 222 232 216 248 255 252 254 257 258 260 263 267 270 273 274 269 263 259 257 253 249 249 251 252 253 253 252
280 270 268 269 263 257 256 257 255 248 248 251 249 239 238 243 254 245 267 251 259 264 267 265 263 265 265 263 272 282 289 285 272 264 259 253 248 248 248 250 252 255 254
291 280 279 276 268 258 254 254 252 253 250 250 253 254 242 231 218 221 246 264 261 266 263 261 268 267 269 267 266 272 281 285 287 275 259 253 252 251 245 247 253 254 254
288 289 286 277 270 258 253 253 255 254 249 248 247 250 253 254 248 245 246 249 257 257 260 265 268 274 272 267 262 259 259 259 264 276 267 250 250 250 248 250 252 255 255
288 298 296 287 275 261 252 252 257 257 251 246 243 242 248 254 253 252 251 257 266 262 264 258 264 265 272 273 274 263 256 253 246 257 257 250 243 245 244 249 254 258 259
296 295 295 290 283 273 260 256 256 255 249 244 243 240 243 245 248 251 251 247 251 266 267 267 259 267 268 273 268 261 259 257 254 253 249 241 238 239 241 248 253 261 257
308 302 291 284 277 273 271 265 263 258 253 250 251 250 251 251 252 251 248 244 243 252 269 266 267 272 276 270 270 270 261 256 259 259 249 243 247 251 253 249 255 258 250
320 319 313 300 284 274 266 265 282 269 262 251 258 257 257 260 258 257 257 251 251 249 261 271 266 268 269 273 273 271 263 262 267 257 258 255 250 246 248 252 250 243 245
329 329 327 320 310 296 287 265 263 266 256 251 257 258 264 268 265 264 262 260 259 257 252 267 270 269 269 270 265 268 271 269 265 264 266 257 252 248 257 242 239 247 252
9 6 357 349 341 332 318 288 276 277 272 266 267 269 271 275 275 274 273 271 271 271 271 272 275 270 267 267 266 270 270 267 267 272 267 263 261 258 248 237 237 242 253
26 23 22 25 28 33 13 344 311 295 288 286 285 286 287 286 284 283 279 274 275 276 277 274 278 281 275 274 273 268 261 258 260 269 270 266 261 253 241 232 236 243 242
40 41 42 40 35 29 8 353 340 328 321 324 324 323 319 304 291 290 286 284 282 280 277 277 277 278 278 281 270 273 268 267 264 264 257 250 250 237 230 217 215 218 231
37 38 42 48 45 32 16 11 6 7 360 352 341 334 333 328 324 321 316 305 293 282 283 282 279 277 279 316 319 294 272 273 261 310 275 267 229 204 151 180 180 165 173
43 45 46 48 42 29 17 18 33 47 41 34 19 5 358 354 344 338 339 349 3 29 28 331 341 7 336 338 336 332 6 42 19 355 345 51 35 69 69 64 44 109 111
54 57 56 57 54 38 32 43 65 83 82 67 52 41 34 16 3 348 339 74 61 48 48 56 58 55 31 26 36 33 27 46 72 41 39 72 32 36 22 32 65 75 102
37 45 48 49 51 43 32 49 75 91 94 88 71 56 52 50 35 59 118 110 97 81 67 63 62 60 27 30 28 18 36 39 15 18 27 38 29 1 358 77 60 47 11
355 3 11 28 42 41 36 50 90 114 109 100 86 77 61 67 64 71 94 116 114 91 87 67 18 359 4 12 16 31 33 49 74 53 13 28 37 6 349 272 251 310 319
Height
831 831 830 831 832 834 835 835 835 836 837 838 838 838 839 839 840 841 842 843 844 844 845 846 845 846 845 845 845 845 844 844 844 844 844 843 843 842 841 840 840 839 838
827 827 827 827 827 827 829 830 831 831 832 833 834 834 834 834 835 836 837 838 839 840 841 842 843 843 843 843 843 843 842 842 842 841 841 840 840 839 839 838 838 837 836
824 824 823 823 823 823 823 824 825 826 827 827 828 828 829 828 829 829 831 832 833 835 836 837 838 839 840 840 840 840 839 839 839 838 838 837 837 836 836 835 834 834 833
821 820 820 819 820 819 819 819 819 819 819 821 821 821 822 823 823 824 825 825 826 828 830 831 832 833 835 835 835 836 836 836 836 835 834 833 833 833 833 832 831 831 830
816 816 815 815 815 815 814 813 814 814 814 814 814 814 815 816 817 819 819 818 818 820 822 824 826 828 829 830 830 830 831 830 831 831 830 830 829 829 829 829 828 827 827
811 811 810 809 809 809 809 809 809 808 809 809 808 807 806 807 809 812 814 816 810 811 814 816 819 820 822 823 824 825 825 825 825 825 825 825 825 825 825 824 824 823 822
804 804 804 804 804 803 802 803 804 804 802 804 804 802 801 799 796 801 808 810 807 804 806 809 810 812 813 815 817 818 819 819 819 819 819 819 820 820 820 820 820 819 818
796 796 796 797 797 796 797 798 799 798 798 797 798 798 798 797 796 795 793 799 800 798 798 800 805 805 805 807 808 810 812 813 813 814 814 814 814 814 814 813 813 814 814
788 789 789 789 789 790 789 791 793 793 792 792 792 795 794 793 791 791 791 790 791 789 790 793 792 797 799 800 801 803 805 806 807 807 807 807 807 807 808 808 808 808 808
780 780 781 781 782 782 783 783 785 787 787 785 786 785 785 786 787 787 785 785 784 782 784 785 787 788 790 792 794 795 797 799 800 800 800 801 801 800 801 801 801 801 801
774 774 774 774 773 774 775 776 778 779 781 782 780 780 780 779 781 782 777 777 777 779 780 780 781 781 783 785 785 786 789 791 792 793 793 793 794 794 794 794 794 794 795
768 768 769 767 767 767 768 770 771 773 774 775 776 776 775 774 775 777 776 775 775 775 775 776 775 776 777 779 778 776 781 781 784 784 783 784 784 785 786 786 787 787 788
764 763 762 761 760 760 762 764 765 766 768 769 771 771 771 770 771 772 772 771 771 769 768 768 767 769 769 768 768 770 770 770 777 776 774 776 776 776 778 779 780 780 781
760 759 758 757 756 756 757 759 760 761 762 762 764 765 766 766 767 768 768 769 767 765 764 763 762 762 762 761 759 760 762 763 763 765 764 767 767 768 770 771 773 774 773
757 755 753 753 753 754 755 755 754 755 757 757 757 758 758 759 760 761 762 764 764 760 755 756 757 756 756 754 755 756 755 755 755 754 755 756 758 761 760 762 764 767 767
754 751 750 749 749 750 750 751 750 752 753 754 754 754 754 755 755 756 756 757 758 757 752 753 752 751 751 749 749 750 749 748 748 747 748 749 747 750 752 753 753 756 758
751 749 748 747 747 746 747 748 747 749 749 749 750 750 751 751 751 752 753 753 753 752 750 747 747 747 745 743 743 742 741 740 739 738 739 740 738 738 741 743 743 746 748
750 748 746 746 745 745 745 744 746 747 746 746 747 748 748 748 748 748 748 748 747 747 746 742 742 741 740 738 734 734 733 732 731 730 729 729 730 730 731 732 734 737 738
749 747 746 745 744 744 743 744 744 744 744 744 745 745 745 745 745 745 744 744 744 743 742 740 734 734 733 731 728 725 724 723 722 722 722 720 720 721 721 722 723 726 729
751 749 747 746 745 744 744 743 742 742 742 742 742 742 742 742 741 740 739 739 738 738 737 735 731 728 727 725 724 720 715 715 713 715 713 713 710 711 711 712 713 717 720
753 751 749 747 746 744 743 742 741 740 739 739 739 739 738 738 737 737 736 734 734 733 731 729 727 724 721 720 718 714 711 708 706 707 706 704 703 704 705 702 706 711 710
754 752 750 748 746 745 743 741 739 738 737 737 737 737 736 735 734 733 733 731 730 728 727 726 722 720 717 717 713 710 706 703 702 701 704 703 695 696 697 702 702 700 706
755 752 750 748 746 744 742 739 738 737 736 735 734 733 733 732 731 731 731 730 728 727 726 724 722 721 719 717 712 709 702 704 707 705 703 700 704 700 703 704 706 703 703
754 751 749 747 745 743 740 738 736 735 734 734 734 733 731 730 729 728 728 728 728 727 725 723 726 722 723 719 713 712 709 708 707 707 704 702 704 708 708 710 711 712 705
754 752 751 748 746 744 742 739 737 736 734 734 734 733 732 731 729 727 725 726 727 727 728 727 725 724 726 718 715 712 710 710 711 710 706 708 709 710 711 712 709 709 710
753 751 750 747 746 743 741 739 737 735 734 734 733 732 731 729 728 728 727 727 727 728 727 725 725 723 720 718 716 713 712 711 710 712 713 713 711 712 710 708 708 708 710